Location: Chevoux
(46.3801°N, 4.9476°E)
Time: 12:35:06
(UTC+00:00)

NOAA 11 - Pass Details

Date: 28 January 2021
Orbit: 832 x 850 km, 98.4° (Epoch: 06 March)

Event Time Altitude Azimuth Distance (km) Brightness Sun altitude
Rises 17:01:47 0° 160° (SSE) 3,402 7.4 -4.5°
Reaches altitude 10° 17:04:09 10° 159° (SSE) 2,471 6.7 -4.8°
Maximum altitude 17:09:38 79° 74° (ENE) 870 4.2 -5.7°
Drops below altitude 10° 17:15:09 10° 348° (NNW) 2,481 6.6 -6.6°
Sets 17:17:31 0° 348° (NNW) 3,419 7.3 -7.0°
